CENTAURI-8

导读

CENTAURI-8是美国于2025年1月14日08:00发射的人造卫星,截至2026年3月,该卫星已在轨运行超一年。作为CENTAURI系列的第八颗成员卫星,它延续了该系列的技术设计思路,依托美国航天发射能力进入预定轨道。目前公开信息暂未披露其具体任务定位,推测它大概率承担通信技术验证、空间环境监测或商业航天相关实验任务,是美国商业航天布局中微小卫星领域的一次实践探索。

Basic Information
目录编号:
62714
目录名称:
CENTAURI-8
国际标识:
2025-009DK
轨道中心:
EARTH
卫星名称:
CENTAURI-8
卫星全名:
CENTAURI-8
卫星状态:
在轨 (已飞行599 天)
发射日期:
2025-01-14 UTC
国别 :
澳大利亚 (AU)
星等 :
--
Orbit Information
数据来源 国际轨道数据
星历时间: 2026-09-04T23:29:02+0800
13小时前
查看轨道信息
半长轴: 6950.551km
偏心率: 0.0001196
轨道倾角: 97.701°
近地点辐角 143.963°
升交点赤经 326.706°
平近点角 216.167°
近地点: 571.582km
远地点: 573.246km
周期: 96.114分钟
每日圈数: 14.982143
Detailed Information
使用方式:
暂无
2D Orbit Map
3D Orbit Map
Orbit Altitude Analysis Chart
Orbit Inclination Analysis Chart
Orbit Comprehensive Analysis Chart
View Comprehensive Chart
Conjunction Data List
Event ID Objects TCA Miss Dist (km) Collision Risk Probability Collision Risk Index (CRI) Action
CDM_260905-222505-646006-271423
2026-09-05T
22:25:56+0000
1.900 km
极远距离
2.591189E-6 低风险 0.43
CDM_260906-172906-271406-683621
2026-09-06T
17:29:09+0000
2.164 km
极远距离
1.970822E-6 低风险 0.41
CDM_260907-141405-596206-271421
2026-09-07T
14:14:07+0000
2.806 km
极远距离
1.466884E-6 低风险 0.38
CDM_260907-062205-910506-271421
2026-09-07T
06:22:46+0000
2.494 km
极远距离
1.096619E-6 低风险 0.36